Location: Shades State Park
(39.9310°N, 87.0690°W)
Time: 19:33:29
(UTC-05:00)

ISS - Visible Passes

Search period start: 02 March 2015 00:00
Search period end: 12 March 2015 01:00
Orbit: 397 x 407 km, 51.6° (Epoch: 02 March)

Date Brightness Start Highest point End Pass type
(mag) Time Alt. Az. Time Alt. Az. Time Alt. Az.
08 Mar -0.4 07:20:10 10° SSE 07:22:02 15° SE 07:24:00 10° E visible
10 Mar -1.9 07:08:54 10° SSW 07:11:52 35° SE 07:14:52 10° ENE visible
11 Mar -0.9 06:17:44 15° SSE 06:18:46 18° SE 06:21:03 10° E visible
